DELTA 1 R/B, 979

Orbit data source: Space-Track

DELTA 1 R/B, 979 is space debris in SSO originally from a launch on Fri, 22 Jan 1965 UTC launched from the Air Force Eastern Test Range (AFETR). Debris objects in space refer to the collection of defunct objects orbiting the Earth. Examples of debris include non-operational satellites, rocket bodies, and fragments generated from explosions, collisions, or faulty payload assembly.

Loading next visibility...
DELTA 1 R/B details
Identifier
979, 1965-004B
Orbit
SSO
Last TLE update22 hours ago
Origin
Flag of USGSFC (US)
ManufacturerABL
MissionSpacecraft
Bus & MotorALTAIR, Unknown motor
Mass60 kg wet, 60 kg dry
Launch date (UTC)
1965-01-22 (60 years ago)
Launch vehicleUnknown
Launch site
Air Force Eastern Test Range (AFETR)
Object type
Payload
Rocket body
Debris
Shape & HBRCyl, 1.5 m
Radar Cross Section0.687 m², Medium (>0.1 m² and < 1m²)

Expand to show TLE details & history

TLE from 22 hours ago
0 DELTA 1 R/B
1 00979U 65004B   25017.81749275  .00000291  00000-0  38777-3 0  9995
2 00979  96.4290 117.3914 1138477 304.1815  45.6356 12.15294887652959
Epoch: 2025-01-17T19:37Z
Definitive object data (Epoch: 2025-01-17T19:37:11.373Z)
Latitude-0.00007°
Longitude65.61834°
Altitude1,039.309 km
Speed7.592 km/s
True Right ascension07h 49m 33s
True Declination0° 00' 00"
Sunlit
Object was in full shadow at TLE epoch
Visualization TLE readout
Latitude65.79235°
Longitude-99.44502°
Altitude2,521.198 km
Speed6.311 km/s
Apparent Right ascension03h 49m 59s
Apparent Declination58° 45' 22"
Sunlit
Object is in daylight
Visualization observer readout
Local Sidereal Time18:54:20
Azimuth22.854° NE
Elevation15.825°
Doppler factor1
Orbital elements
Apogee altitude2,519.879 km
Perigee altitude700.925 km
Semi-major axis7,988.539 km
Eccentricity0.1138477
Inclination96.429°
RAAN117.3914°
Arg. of periapsis304.1815°
True anomaly55.93139°
Mean anomaly45.6356°
Eccentric anomaly50.68206°
Mean motion3.03978 °/min
BSTAR0.00038777
Orbital period118.43 mins
Loading maneuver chart data...
Loading historical data...
Loading historical data...
Loading historical data...
Loading historical data...
Loading historical data...
Loading historical data...
Loading historical data...
Other satellites on launch #4 in the year 1965 (1965-01-22 UTC)

DELTA 1 R/B Visibility forecast

Observer location: undefined°, undefined

Span
Click to sort rows by Start time (UTC) header in descending order
Start Az.
Max El. time (UTC)
Max El. Az.
Max El.
End time (UTC)
End Az.
23 mins2025-01-18 18:01:13.916Z22.905° NE2025-01-18 18:12:13.916Z86.836° E36.831°2025-01-18 18:24:13.916Z161.933° S
24 mins2025-01-18 19:57:13.916Z3.05° NNE2025-01-18 20:09:13.916Z294.422° NW40.528°2025-01-18 20:21:13.916Z217.758° SW
13 mins2025-01-18 21:57:13.916Z340.885° N2025-01-18 22:03:13.916Z312.33° NW17.599°2025-01-18 22:10:13.916Z279.576° WNW
16 mins2025-01-19 05:20:13.916Z121.93° SE2025-01-19 05:26:13.916Z66.076° ENE32.63°2025-01-19 05:36:13.916Z0.676° NNE
16 mins2025-01-19 07:17:13.916Z200.786° SSW2025-01-19 07:23:13.916Z271.114° WNW37.759°2025-01-19 07:33:13.916Z341.514° N
17 mins2025-01-19 17:44:13.916Z25.545° NE2025-01-19 17:55:13.916Z87.477° E33.365°2025-01-19 18:01:13.916Z133.829° SE
|